Campo, CA

12:58 PM PST on January 20, 2017 (GMT -0800)
Campo

Weather History for KCZZ - December, 2011

Change the Weather History Date:

Wednesday, December 7, 2011

  Actual Average Record
Temperature  
Mean Temperature 49 °F 48 °F  
Max Temperature 59 °F 63 °F 82 °F (1970)
Min Temperature 39 °F 33 °F 14 °F (1978)
Degree Days  
Heating Degree Days 16 17  
Month to date heating degree days 155 116  
Since 1 July heating degree days 787 686  
Cooling Degree Days 0 0  
Month to date cooling degree days 0 0  
Year to date cooling degree days 733 841  
Moisture  
Dew Point 8 °F    
Average Humidity 17    
Maximum Humidity 20    
Minimum Humidity 14    
Precipitation  
Precipitation 0.00 in 0.06 in 1.95 in (2009)
Month to date precipitation 0.31 0.43  
Year to date precipitation 11.81 13.89  
Since 1 July precipitation 4.06  
Snow  
Snow 0.00 in - - ()
Month to date snowfall 0.0  
Year to date snowfall 0.0  
Snow Depth 0.00 in    
Sea Level Pressure  
Sea Level Pressure 30.08 in    
Wind  
Wind Speed 14 mph (NE)    
Max Wind Speed 28 mph    
Max Gust Speed 33 mph    
T = Trace of Precipitation, MM = Missing Value Source: NWS Daily Summary

Daily Weather History Graph

Daily Weather History Graph

Search for Another Location

Airport or City:

Trip Planner

Search our weather history database for the weather conditions in past years. The results will help you decide how hot, cold, wet, or windy it might be!

Date:

Astronomy

Dec. 07, 2011 Rise Set
Actual Time 6:34 AM PST 4:39 PM PST
Civil Twilight 6:07 AM PST 5:06 PM PST
Nautical Twilight 5:37 AM PST 5:37 PM PST
Astronomical Twilight 5:07 AM PST 6:07 PM PST
Moon 2:40 PM PST (12/7) 3:58 AM PST (12/7)
Length of Visible Light 10h 59m
Length of Day
10h 05m
Waxing Gibbous, 93% of the Moon is Illuminated
Dec 7
Waxing Gibbous
Dec 10
Full
Dec 17
Last Quarter
Dec 24
New
Dec 31
First Quarter

Hourly Weather History & Observations

Time (PST) Temp. Windchill Dew Point Humidity Pressure Visibility Wind Dir Wind Speed Gust Speed Precip Events Conditions
12:52 AM 42.1 °F 37.7 °F -2.9 °F 15% 30.17 in - NE 6.9 mph - N/A   Unknown
1:52 AM 42.1 °F 38.4 °F -2.9 °F 15% 30.17 in - NE 5.8 mph - N/A   Unknown
2:52 AM 42.1 °F 37.1 °F -0.9 °F 17% 30.16 in - ENE 8.1 mph - N/A   Unknown
3:52 AM 39.9 °F 33.4 °F -0.9 °F 18% 30.14 in - ENE 10.4 mph - N/A   Unknown
4:52 AM 39.0 °F 31.4 °F 1.0 °F 20% 30.14 in - ENE 12.7 mph - N/A   Unknown
5:52 AM 42.1 °F 36.1 °F -0.9 °F 17% 30.14 in - ENE 10.4 mph - N/A   Unknown
6:52 AM 43.0 °F 36.4 °F 1.0 °F 17% 30.14 in - ENE 12.7 mph - N/A   Unknown
7:52 AM 46.9 °F - 3.0 °F 16% 30.14 in - ENE 12.7 mph - N/A   Unknown
8:52 AM 52.0 °F - 3.9 °F 14% 30.14 in - ENE 17.3 mph 24.2 mph N/A   Unknown
9:52 AM 55.0 °F - 8.1 °F 15% 30.12 in - ENE 18.4 mph 26.5 mph N/A   Unknown
10:52 AM 57.0 °F - 9.0 °F 15% 30.09 in - East 20.7 mph 29.9 mph N/A   Unknown
11:52 AM 57.0 °F - 10.0 °F 15% 30.06 in - East 23.0 mph 29.9 mph N/A   Unknown
12:52 PM 57.9 °F - 10.0 °F 15% 30.04 in - East 19.6 mph - N/A   Unknown
1:52 PM 57.9 °F - 10.9 °F 16% 30.02 in - ENE 18.4 mph - N/A   Unknown
2:52 PM 57.0 °F - 10.0 °F 15% 30.01 in - East 20.7 mph - N/A   Unknown
3:52 PM 54.0 °F - 10.9 °F 18% 30.02 in - East 18.4 mph - N/A   Unknown
4:52 PM 48.0 °F - 12.0 °F 24% 30.02 in - East 16.1 mph - N/A   Unknown
5:52 PM 37.9 °F 32.7 °F 16.0 °F 41% 30.05 in - NNE 6.9 mph - N/A   Unknown
6:52 PM 39.9 °F 35.1 °F 15.1 °F 36% 30.05 in - NNE 6.9 mph - N/A   Unknown
7:52 PM 36.0 °F 31.1 °F 16.0 °F 44% 30.04 in - North 5.8 mph - N/A   Unknown
8:52 PM 36.0 °F 30.3 °F 15.1 °F 43% 30.04 in - North 6.9 mph - N/A   Unknown
9:52 PM 33.1 °F 26.9 °F 15.1 °F 48% 30.04 in - North 6.9 mph - N/A   Unknown
10:52 PM 33.1 °F 28.7 °F 14.0 °F 46% 30.05 in - North 4.6 mph - N/A   Unknown
11:52 PM 30.9 °F 26.2 °F 14.0 °F 50% 30.04 in - North 4.6 mph - N/A   Unknown